Pagina principale
METAR-TAF:

METAR-TAF

Aeroporti :

Trevico, Italia

latitudine: 41-03N, longitudine: 015-14E, altezza: 1085 m

Osservazione

Il bollettino è stato emesso 1 ora e 15 minuti fa, alle 10:55 UTC
Vento 8 kt da nord
Temperature 20°C
Umidità 73%
Pressione 1022 hPa
Visibilità 10 km o più
nessuna nube inferiore a 1500 m e nessun cumulonembo

METAR: LIRT 271055Z 36008KT CAVOK 20/15 Q1022 RMK BKN FEW070 BKN160 MON LIB VAL NIL VIS MIN 9999

Ora: 14:10 (12:10 UTC)


TAF: mancante

Osservazioni e previsioni meteorologiche di più di 4000 aeroporti (messaggi METAR e TAF).

Le stazioni disponibili sono rappresentate dai dischi gialli e rossi sulla carta.

Puntare il mouse per vedere il nome della stazione.

Clicca sopra per visualizzare le osservazioni e previsioni meteorologiche.

Per cambiare la mappa : fare clic sui pulsanti verdi con una croce nera per ingrandire, il pulsante verde con un trattino per diminuire, o sulla freccia verde per le mappe adiacenti.


METAR-TAF: